Other Public Products
Issued by NWS Grand Forks, ND

Home | Current Version | Previous Version | Text Only | Print | Product List | Glossary Off
Versions: 1 2 3 4 5 6 7 8 9 10 11 12 13 14 15 16 17 18 19 20 21 22 23 24 25 26 27 28 29 30 31 32 33 34 35 36 37 38 39 40 41 42 43 44 45 46 47 48 49 50

762
FPUS83 KFGF 100510
OPUFGF
PRAIRIE TO PINES WEATHER ROUNDUP
NATIONAL WEATHER SERVICE EASTERN NORTH DAKOTA/GRAND FORKS ND
1100 PM CST TUE FEB 09 2016

 **SATELLITE DATA USED TO AUGMENT SKY COVER AT AUTOMATED STATIONS**
 *****  WEATHER ACROSS EASTERN NORTH DAKOTA  *****

CITY           SKY/WX    TMP DP  RH WIND       PRES   REMARKS
GRAND FORKS    MOCLDY     5  -2  72 N9        30.23F WCI  -9
GRAND FORKS AF PTCLDY     3  -3  76 NE6       30.22F WCI  -8
GRAND CITY NWS NOT AVBL
BUXTON           N/A      4   2  90 N6          N/A  WCI  -7
DEVILS LAKE    CLOUDY     9   4  80 E12       30.14F WCI  -6
FARGO          CLOUDY     4  -2  76 N7        30.21S WCI  -8
WAHPETON ARPT  CLOUDY     9   1  72 NE7       30.21R WCI  -3
$$

 *****  WEATHER ACROSS CENTRAL AND WESTERN NORTH DAKOTA  *****

CITY           SKY/WX    TMP DP  RH WIND       PRES   REMARKS
JAMESTOWN      CLOUDY    13   6  74 E12       30.12S WCI  -1
BISMARCK       CLOUDY    32  21  64 E9        30.03F WCI  24
MINOT          LGT SNOW  20  13  74 E13       30.03F WCI   7
MINOT AFB      LGT SNOW  18  16  93 SE14      30.02F FOG     WCI   4
GARRISON         N/A     25  20  81 E14       30.00F WCI  13
WILLISTON      PTCLDY    26  22  84 CALM      29.96F
DICKINSON      CLOUDY    27  21  78 S12       29.94F WCI  17
HETTINGER      CLOUDY    27  20  75 CALM      29.99F
$$

 *****  OTHER OBSERVATIONS NORTHEAST NORTH DAKOTA  *****

CITY           SKY/WX    TMP DP  RH WIND       PRES   REMARKS
WALHALLA       FAIR       3   0  85 E5        30.23F WCI  -6
LANGDON        FAIR       3   0  85 E7        30.14F WCI  -9
CAVALIER       FAIR       3  -2  78 NE5       30.24F WCI  -6
GRAFTON        FAIR       3  -2  78 NE7       30.25F WCI  -9
CANDO          NOT AVBL
FORT TOTTEN      N/A     10   5  81 E7        29.95S WCI  -1
ROLLA          LGT SNOW   9   5  85 SE8       30.10F WCI  -4
RUGBY          LGT SNOW  10   9  92 E15       30.10F WCI  -6
 ***** THE ABOVE OBSERVATIONS ARE NON NWS ARE NOT QUALITY
        CONTROLLED AND MAY MIS-REPORT RAIN FOR SNOW...
$$

 *****  OTHER OBSERVATIONS SOUTHEAST NORTH DAKOTA *****

CITY           SKY/WX    TMP DP  RH WIND       PRES   REMARKS
COOPERSTOWN    NOT AVBL
VALLEY CITY    CLOUDY    10   5  79 E9        30.17F WCI  -2
OAKES          CLOUDY    14   9  79 E12       30.15S WCI   0
GWINNER        CLOUDY    14   9  79 NE8       30.16F WCI   3
BUFFALO          N/A      9   1  70 NE8         N/A  WCI  -3
WYNDMERE         N/A     10   7  85 NE7         N/A  WCI   0
 ***** THE ABOVE OBSERVATIONS ARE NON NWS ARE NOT QUALITY
       CONTROLLED AND MAY MIS-REPORT RAIN FOR SNOW...
$$

  *****  WEATHER ACROSS NORTHERN MINNESOTA  *****

CITY           SKY/WX    TMP DP  RH WIND       PRES   REMARKS
FLAG ISLAND    CLOUDY    -9 -13  84 NW6       30.18F WCI -23
WARROAD        CLOUDY    -6 -11  77 NW3       30.20F
ROSEAU         CLOUDY    -6 -11  77 NE3       30.20F
HALLOCK        CLOUDY     0  -8  71 CALM      30.22F
THF RVR FALLS  CLOUDY     0  -8  71 N7        30.19F WCI -13
HALSTAD        NOT AVBL
FOSSTON          N/A    -11 -17  77 NE3       30.17F
BAUDETTE       CLOUDY    -8 -13  78 N8        30.16F WCI -24
WASKISH        CLOUDY    -6  -9  84 CALM      30.16S
CROOKSTON      MOCLDY     1  -2  85 N6        30.23S WCI -10
$$
  *****  WEATHER ACROSS CENTRAL AND WEST MINNESOTA  *****

CITY           SKY/WX    TMP DP  RH WIND       PRES   REMARKS
BEMIDJI        CLOUDY    -7 -10  86 NW6       30.14S WCI -20
PARK RAPIDS    CLOUDY    -6 -11  79 NW6       30.13S WCI -19
WADENA         CLOUDY    -2  -6  84 NW5       30.15R WCI -12
DETROIT LAKES  CLOUDY     0  -4  85 NW3       30.16S
MOORHEAD       CLOUDY     3  -2  78 N10       30.21F WCI -12
FERGUS FALLS   CLOUDY     3   0  85 N3        30.22R
ELBOW LAKE     MOCLDY     5   1  84 N5        30.17R WCI  -4
MORRIS MN      CLOUDY    10   5  79 N6        30.16F WCI   1
STAPLES        CLOUDY    -4  -8  84 CALM      30.14S
WHEATON        CLOUDY    12   7  79 N5        30.20S WCI   4
$$
  *****  WEATHER ELSEWHERE ACROSS MINNESOTA  *****

CITY           SKY/WX    TMP DP  RH WIND       PRES   REMARKS
DULUTH         PTCLDY    -1  -8  72 N9        30.05F WCI -16
INTRNTL FALLS  CLOUDY    -4  -9  79 N7        30.15S WCI -18
ELY            CLOUDY    -2  -8  78 NW6       30.06S WCI -14
CLOQUET        CLOUDY     0  -9  65 NW7       30.08S WCI -13
BRAINERD       CLOUDY     0  -7  72 N6        30.14F WCI -12
HIBBING        CLOUDY    -4  -9  79 N9        30.08F WCI -20
ALEXANDRIA     CLOUDY     2  -2  83 N8        30.14F WCI -12
SAINT CLOUD    CLOUDY     4  -2  76 N6        30.15F WCI  -7
MINNEAPOLIS    PTCLDY     9  -4  55 N10       30.16R WCI  -5
$$

  *****  WEATHER ACROSS SOUTH DAKOTA  *****

CITY           SKY/WX    TMP DP  RH WIND       PRES   REMARKS
SIOUX FALLS    CLOUDY    19  12  74 E3        30.14S
BROOKINGS      CLOUDY    18  11  74 E3        30.11F
WATERTOWN      CLOUDY    17   8  67 SE3       30.10F
HURON          CLOUDY    27  18  69 S8        30.10F WCI  19
SISSETON         N/A     12   6  77 NE5       30.16F WCI   4
ABERDEEN       CLOUDY    21  13  71 E9        30.11F WCI  11
MITCHELL       CLOUDY    27  18  69 SE6       30.13S WCI  20
PIERRE         CLOUDY    31  25  78 CALM      30.04F
MOBRIDGE       CLOUDY    32  23  69 SE7       29.99F
RAPID CITY     CLOUDY    30  25  81 CALM      30.03F
$$

  *****  SOME WEATHER IN NEARBY STATES *****

CITY           SKY/WX    TMP DP  RH WIND       PRES   REMARKS
GLASGOW MT     CLOUDY    36  29  75 W5        29.95F
GREAT FALLS MT CLOUDY    45  21  38 S14       30.09F
CHEYENNE WY    CLOUDY    36  17  46 NW7       30.23F
SCOTTSBLUFF NE CLEAR     31  26  82 NW6       30.17S
OMAHA NE       CLEAR     22  13  68 CALM      30.21F
DES MOINES IA  PTCLDY    15   6  67 NW9       30.18S WCI   3
DAVENPORT IA   CLEAR     11   2  67 NW14      30.07F WCI  -5
CHICAGO IL     CLOUDY    14   6  70 NW13      29.94S WCI   0
EAU CLAIRE WI  CLEAR      6  -7  54 NW9       30.08R WCI  -8
LA CROSSE WI   PTCLDY     5  -5  63 NW9       30.09R WCI  -9
$$

  *****  SOME NATIONAL WEATHER *****

CITY           SKY/WX    TMP DP  RH WIND       PRES   REMARKS
LA GUARDIA NY  CLOUDY    33  26  75 CALM      29.60F
RALEIGH NC     PTCLDY    29  12  49 W7        29.82S WCI  22
ATLANTA GA     PTCLDY    27  16  63 NW16G22   30.00S WCI  15
NEW ORLEANS LA CLEAR     44  23  43 W8        30.22R
OKLAHOMA CITY  PTCLDY    37  19  48 N6        30.30R
ALBUQUERQUE NM CLOUDY    47  20  34 NE6       30.38S
SALT LAKE CITY PTCLDY    29  26  89 NW3       30.47S FOG
LOS ANGELES CA PTCLDY    65  49  56 SW3       30.10S
BOISE ID       CLEAR     32  28  85 CALM      30.45F
SEATTLE WA     MOCLDY    55  40  56 SE3       30.12F
$$

*** WEATHER ACROSS MANITOBA...SASKATCHEWAN AND ONTARIO ***
                ***ONTARIO***

CITY           SKY/WX    TMP DP  RH WIND       PRES   REMARKS
GERALDTON      CLEAR     -9 -15  77 N13G20    29.99S WCI -30
THUNDER BAY    PTCLDY    -4 -13  65 NW6       30.11S WCI -16
SIOUX LOOKOUT  CLEAR    -13 -18  77 N3        30.13F
TORONTO        SNOWSHWR  28  27  93 W7        29.47S WCI  21
BIG TROUT LK   CLEAR    -22 -27  76 NW6       30.18F WCI -38
PICKLE LAKE    NOT AVBL
DRYDEN         CLEAR    -11 -15  84 N7        30.13S WCI -26
KENORA         CLEAR     -9 -13  84 N5        30.14F WCI -21
$$
                *** MANITOBA***

CITY           SKY/WX    TMP DP  RH WIND       PRES   REMARKS
BRANDON        LGT SNOW   7   1  78 SE10      30.14F WCI  -8
DAUPHIN        CLOUDY     5   0  78 E8        30.15F WCI  -8
ISLAND LAKE    CLEAR    -24 -31  69 CALM      30.25F
PILOT MOUND      N/A      3   0  85 E8          N/A  WCI -10
THE PAS        CLOUDY    -4 -11  71 SE8       30.15F WCI -19
THOMPSON       MOCLDY   -20 -27  69 CALM      30.24F
WINNIPEG       PTCLDY    -6 -11  77 NE2       30.25F
LYNN LAKE      FLURRIES  -8 -11  84 SE8       30.13S WCI -23
CHURCHILL      CRYSTALS -29 -36  68 NW10      30.30F WCI -53
GILLAM         CLEAR    -26 -31  75 W5        30.28S WCI -40
$$
                ***SASKATCHEWAN***

CITY           SKY/WX    TMP DP  RH WIND       PRES   REMARKS
ESTEVAN        FLURRIES  23  19  86 E16       29.95F WCI  10
KINDERSLEY     PTCLDY    32  27  80 W8        29.88S WCI  25
LLOYDMINSTER   CLEAR     37  30  75 NW10      29.88S
PRINCE ALBERT  LGT SNOW  18  16  93 E7        29.92F WCI   8
REGINA         CLOUDY    28  27  93 E8        29.89F WCI  20
YORKTON        LGT SNOW  12  10  92 SE14      29.99F WCI  -3
N. BATTLEFORD  CLOUDY    25  25 100 SE6       29.88F FC1F1C2F2C3F3C4F4C5F5C6F6C7F7C8F8C9F9CaFaCbFbCcFcCdFdCe!



USA.gov is the U.S. government's official web portal to all federal, state and local government web resources and services.